Weather Roundup
Issued by NWS Chicago, IL

Home | Current Version | Previous Version | Text Only | Print | Product List | Glossary On
Versions: 1 2 3 4 5 6 7 8 9 10 11 12 13 14 15 16 17 18 19 20 21 22 23 24 25 26 27 28 29 30 31 32 33 34 35 36 37 38 39 40 41 42 43 44 45 46 47 48 49 50
000
NZUS59 KLOT 161612
HRRLOT

CHICAGO AREA WEATHER ROUNDUP
NATIONAL WEATHER SERVICE CHICAGO/ROMEOVILLE IL
1000 AM CST MON JAN 16 2017

NOTE: "FAIR" INDICATES FEW OR NO CLOUDS BELOW 12,000 FEET WITH NO
SIGNIFICANT WEATHER AND/OR OBSTRUCTIONS TO VISIBILITY.

* THESE STATIONS ARE NOT UNDER NWS QUALITY CONTROL. THEY ALSO MAY NOT
  REPORT WEATHER SUCH AS PRECIPITATION OR FOG.

ILZ005-006-012>014-019>023-161700-
NORTHEAST ILLINOIS

CITY           SKY/WX    TMP DP  RH WIND       PRES   REMARKS
OHARE          LGT RAIN  34  31  88 E8        30.23S FOG     WCI  27
MIDWAY         LGT RAIN  34  31  88 E7        30.24F FOG     WCI  28
AURORA         RAIN      34  32  92 E6        30.23S VSB 1   WCI  29
LANSING*       LGT RAIN  33  33 100 E6        30.24F WCI  27
JOLIET*        LGT RAIN  35  34  98 E7        30.23F WCI  29
WAUKEGAN       FRZ RAIN  32  30  92 E3        30.24S FOG
DUPAGE AIRPORT LGT RAIN  34  31  88 SE6       30.22S FOG     WCI  29
WHEELING       LGT RAIN  33  31  92 E3        30.24F FOG
KANKAKEE*      FOG       33  33  98 CALM      30.24S VSB 3/4
MORRIS*        LGT RAIN  33  32  96 E7        30.22F WCI  27
LEWIS AIRPORT* LGT RAIN  33  33 100 E6        30.23S WCI  27
NORTHERLY ISL    N/A     32  30  93 E6          N/A  WCI  26
$$

WIZ051-052-058>065-066-070>072-161700-
SOUTHEAST WISCONSIN

CITY           SKY/WX    TMP DP  RH WIND       PRES   REMARKS
MILWAUKEE      FRZ RAIN  33  28  81 SE5       30.25S FOG     WCI  29
KENOSHA*       CLOUDY    32  29  88 SE7       30.24F FOG     WCI  26
RACINE*        FRZ RAIN  32  29  88 SE5       30.26F FOG     WCI  27
WAUKESHA       CLOUDY    28  28 100 E6        30.25S WCI  22
WEST BEND      MIX PCPN  30  27  86 CALM      30.23F
$$

INZ001>003-010>013-019-020-161700-
NORTHWEST INDIANA

CITY           SKY/WX    TMP DP  RH WIND       PRES   REMARKS
GARY*          FOG       34  34 100 VRB5      30.25F VSB 1   WCI  30
MICHIGAN CITY* NOT AVBL
RENSSELAER*    NOT AVBL
VALPARAISO     FOG       34  33  96 E7        30.26F VSB 1/2 WCI  28
$$

LMZ740>746-161700-
SOUTHERN LAKE MICHIGAN

STATION/POSITION TIME  SKY/WX   TEMP WIND        PRES    VSBY
                                AIR  DIR/SP/G
                 (UTC)          (F)  (DEG/KT/KT) (MB)    (MI)
HARRISON CRIB    1540            34  120/  9/ 10   N/A
BURNHAM HARBOR   1600            32   90/  3/  7   N/A
CALUMET HARBOR   1548            31   90/  7/ 10 1023.5F
BURNS HARBOR     1540            32   80/  8/  9 1024.7F
MICHIGAN CITY    1540            32   80/  5/  6   N/A
$$

ABBREVIATIONS USED IN REMARKS
   TC - TEMPERATURE IN CELSIUS
  WCI - WIND CHILL INDEX
   HX - HEAT INDEX
  VSB - VISIBILITY
$$




USA.gov is the U.S. government's official web portal to all federal, state and local government web resources and services.